Waarnemingen

Advertentie
Mijn weer
Helsingborg, Zweden (2611): temperatuur & dauwpunt: 13.08.2019 23:00:00 - 19.08.2019 23:00:00 (CEST)Helsingborg, Zweden (2611): windsnelheid & windstoten: 13.08.2019 23:00:00 - 19.08.2019 23:00:00 (CEST)Helsingborg, Zweden (2611): windrichting: 13.08.2019 23:00:00 - 19.08.2019 23:00:00 (CEST)Helsingborg, Zweden (2611): luchtdruk: 13.08.2019 23:00:00 - 19.08.2019 23:00:00 (CEST)Helsingborg, Zweden (2611): zicht: 13.08.2019 23:00:00 - 19.08.2019 23:00:00 (CEST)Helsingborg, Zweden (2611): neerslag: 13.08.2019 23:00:00 - 19.08.2019 23:00:00 (CEST)
Datum & Tijd tt [°C] td [°C] ff [km/u] ff [kn] fx [km/u] fx [kn] dd ppp [hPa] vv [km] rr [mm]
19.08.2019 23:00:00 - - - - - - - - - -
19.08.2019 22:00:00 15,7 13,5 11 6 18 10 Z 1014,7 36 0,0
19.08.2019 21:00:00 14,5 12,5 6 4 20 11 Z 1014,3 46 0,0
19.08.2019 20:00:00 15,5 13,2 11 6 23 12 ZZW 1013,9 42 0,0
19.08.2019 19:00:00 15,8 14,3 7 4 14 8 Z 1013,8 25 0,0
19.08.2019 18:00:00 15,3 14,2 8 4 38 21 ZZW 1013,5 12 1,9
19.08.2019 17:00:00 17,6 12,9 9 5 41 22 WZW 1012,5 42 0,7
19.08.2019 16:00:00 16,8 10,6 29 16 56 30 ZW 1012,8 42 0,0
19.08.2019 15:00:00 21,1 12,0 19 10 32 18 ZW 1011,4 40 0,0
19.08.2019 14:00:00 19,6 12,8 18 10 29 16 ZZW 1010,8 40 0,0
19.08.2019 13:00:00 19,1 12,1 21 12 34 18 ZZW 1010,3 39 0,0
19.08.2019 12:00:00 20,1 13,5 20 11 29 16 ZZW 1010,0 42 0,0
19.08.2019 11:00:00 19,5 14,3 17 9 34 18 ZZW 1009,8 36 0,0
19.08.2019 10:00:00 18,1 15,4 16 9 26 14 ZZW 1009,6 29 0,0
19.08.2019 09:00:00 16,7 15,2 14 8 25 14 ZZW 1009,5 23 0,0
19.08.2019 08:00:00 15,3 14,5 12 6 19 10 Z 1009,3 14 0,0
19.08.2019 07:00:00 14,8 14,0 8 4 18 10 ZZW 1008,9 15 0,0
19.08.2019 06:00:00 14,6 13,8 10 6 18 10 ZW 1008,2 12 0,0
19.08.2019 05:00:00 14,3 13,5 9 5 16 9 ZZW 1007,7 - 0,0
19.08.2019 04:00:00 14,2 13,4 8 5 17 9 ZW 1007,0 12 0,0
19.08.2019 03:00:00 14,2 13,4 9 5 19 10 ZW 1006,8 15 0,0
19.08.2019 02:00:00 14,2 13,4 8 4 16 9 ZW 1006,4 14 0,0
19.08.2019 01:00:00 14,2 13,2 8 4 19 11 ZW 1005,8 18 0,0
19.08.2019 00:00:00 14,6 13,6 12 6 21 12 ZW 1005,5 25 0,0
18.08.2019 23:00:00 14,3 13,2 8 5 19 10 ZW 1004,8 39 0,0
18.08.2019 22:00:00 14,6 13,3 7 4 23 12 WZW 1004,3 50 0,0
18.08.2019 21:00:00 15,2 14,2 12 6 27 15 WZW 1003,8 19 0,0
18.08.2019 20:00:00 15,6 14,6 12 7 24 13 ZW 1003,2 33 0,0
18.08.2019 19:00:00 15,2 13,9 12 7 27 15 Z 1003,2 17 0,7
18.08.2019 18:00:00 16,1 14,6 14 8 26 14 Z 1003,4 11 0,8
18.08.2019 17:00:00 17,4 15,9 6 3 17 9 ZZO 1003,5 6 0,7
18.08.2019 16:00:00 18,0 15,3 9 5 16 9 Z 1003,9 39 0,0
18.08.2019 15:00:00 18,7 15,0 12 7 20 11 Z 1004,3 34 0,0
18.08.2019 14:00:00 19,7 14,7 10 5 19 10 Z 1004,1 42 0,0
18.08.2019 13:00:00 18,4 14,3 6 4 16 9 ZZO 1004,2 37 0,0
18.08.2019 12:00:00 17,8 14,7 0 0 8 5 N 1004,9 50 0,0
18.08.2019 11:00:00 17,2 15,0 6 4 11 6 Z 1004,9 43 0,0
18.08.2019 10:00:00 17,4 14,9 4 2 14 7 ZZW 1005,0 43 0,0
18.08.2019 09:00:00 17,0 15,5 8 5 19 11 ZW 1004,8 30 0,0
18.08.2019 08:00:00 17,1 16,1 11 6 22 12 ZW 1004,7 22 0,0
18.08.2019 07:00:00 17,1 16,5 11 6 18 10 Z 1004,3 7 0,0
18.08.2019 06:00:00 17,3 16,7 6 4 16 9 Z 1004,5 2,7 0,3
18.08.2019 05:00:00 17,3 16,7 6 3 16 9 Z 1004,8 3,7 0,0
18.08.2019 04:00:00 17,2 16,4 10 5 20 11 Z 1005,1 3,7 0,0
18.08.2019 03:00:00 17,4 16,6 13 7 21 11 Z 1005,9 6 0,0
18.08.2019 02:00:00 16,9 15,9 4 2 18 10 ZO 1005,7 7 0,0
18.08.2019 01:00:00 17,1 16,1 6 4 18 10 Z 1005,9 9 0,0
18.08.2019 00:00:00 17,4 16,1 9 5 19 10 Z 1006,0 10 0,0
17.08.2019 23:00:00 17,7 16,0 11 6 21 11 Z 1006,0 23 0,0
17.08.2019 22:00:00 17,9 16,1 13 7 23 12 Z 1006,0 34 0,0
17.08.2019 21:00:00 17,9 15,7 11 6 19 11 Z 1006,0 44 0,0
17.08.2019 20:00:00 18,0 15,6 10 5 22 12 Z 1006,0 37 0,0
17.08.2019 19:00:00 18,4 15,1 16 8 36 19 Z 1006,1 46 0,0
17.08.2019 18:00:00 18,3 14,8 19 10 34 19 Z 1005,9 35 0,0
17.08.2019 17:00:00 18,2 14,5 18 10 37 20 Z 1006,0 40 0,0
17.08.2019 16:00:00 18,5 14,4 18 10 39 21 Z 1006,1 39 0,0
17.08.2019 15:00:00 18,2 14,1 16 9 32 17 Z 1006,2 36 0,0
17.08.2019 14:00:00 16,8 14,3 16 9 36 19 Z 1006,7 44 0,0
17.08.2019 13:00:00 16,7 14,7 18 10 36 20 Z 1007,1 9 0,0
17.08.2019 12:00:00 17,2 15,2 15 8 27 15 ZZO 1007,3 19 0,1
17.08.2019 11:00:00 16,3 14,8 13 7 26 14 ZZO 1007,7 13 0,6
17.08.2019 10:00:00 15,9 14,4 10 5 30 16 ZZO 1008,3 13 0,6
17.08.2019 09:00:00 15,7 14,1 16 8 27 14 Z 1008,7 15 1,3
17.08.2019 08:00:00 15,7 14,2 6 4 20 11 ZZO 1009,0 12 0,0
17.08.2019 07:00:00 15,6 13,3 8 5 18 10 ZO 1009,0 45 0,0
17.08.2019 06:00:00 14,7 12,4 9 5 19 10 ZO 1009,3 43 0,0
17.08.2019 05:00:00 13,9 11,4 7 4 17 9 ZO 1009,9 46 0,0
17.08.2019 04:00:00 14,3 12,0 5 3 13 7 ZO 1010,4 49 0,0
17.08.2019 03:00:00 13,1 10,6 0 0 0 0 N 1011,2 50 0,0
17.08.2019 02:00:00 13,6 10,2 0 0 9 5 N 1011,6 43 0,0
17.08.2019 01:00:00 14,8 10,4 7 4 16 9 Z 1011,9 48 0,0
17.08.2019 00:00:00 15,8 9,9 10 5 19 10 ZW 1012,4 49 0,0
16.08.2019 23:00:00 14,9 11,5 0 0 0 0 N 1012,5 49 0,0
16.08.2019 22:00:00 16,6 10,7 0 0 8 4 N 1012,5 48 0,0
16.08.2019 21:00:00 17,2 10,6 2 1 13 7 WZW 1012,4 47 0,0
16.08.2019 20:00:00 17,7 11,3 7 4 14 8 ZW 1012,2 50 0,0
16.08.2019 19:00:00 18,4 11,0 6 3 16 9 W 1012,2 50 0,0
16.08.2019 18:00:00 19,3 11,1 12 6 22 12 W 1012,1 50 0,0
16.08.2019 17:00:00 20,1 11,0 13 7 25 13 W 1012,0 42 0,0
16.08.2019 16:00:00 20,6 11,5 16 9 27 15 W 1011,8 48 0,0
16.08.2019 15:00:00 19,3 13,0 13 7 31 17 WNW 1012,0 45 0,0
16.08.2019 14:00:00 18,4 13,3 13 7 27 15 WNW 1011,8 44 0,0
16.08.2019 13:00:00 18,9 13,3 10 6 20 11 WNW 1011,3 48 0,0
16.08.2019 12:00:00 18,6 13,2 12 7 27 15 ZW 1011,2 49 0,0
16.08.2019 11:00:00 19,3 14,5 10 5 24 13 ZW 1010,8 35 0,0
16.08.2019 10:00:00 17,5 14,4 15 8 24 13 WZW 1010,5 45 0,0
16.08.2019 09:00:00 17,4 16,1 11 6 20 11 ZW 1010,0 29 0,0
16.08.2019 08:00:00 16,3 15,3 11 6 23 12 WZW 1009,6 7 0,2
16.08.2019 07:00:00 16,5 15,5 8 5 21 12 ZW 1009,1 14 0,0
16.08.2019 06:00:00 16,3 15,5 8 5 14 8 ZW 1008,6 14 0,0
16.08.2019 05:00:00 16,3 15,3 7 4 20 11 ZZW 1008,1 12 0,0
16.08.2019 04:00:00 16,4 15,4 10 6 19 10 ZW 1007,9 16 0,0
16.08.2019 03:00:00 16,5 15,7 12 6 18 10 ZZW 1007,8 16 0,0
16.08.2019 02:00:00 16,8 16,2 10 6 25 14 Z 1007,7 8 0,0
16.08.2019 01:00:00 15,9 15,3 0 0 15 8 N 1007,7 5 0,2
16.08.2019 00:00:00 15,7 14,9 5 3 20 11 ZZO 1008,0 6 0,0
15.08.2019 23:00:00 16,0 15,2 7 4 13 7 ZO 1008,0 7 0,0
15.08.2019 22:00:00 16,3 15,5 10 5 17 9 Z 1008,1 13 0,0
15.08.2019 21:00:00 15,2 14,6 7 4 18 10 ZO 1008,0 9 0,0
15.08.2019 20:00:00 14,6 13,8 10 5 24 13 ZO 1007,9 6 0,0
15.08.2019 19:00:00 14,4 13,4 11 6 28 15 ZO 1007,9 7 0,0
15.08.2019 18:00:00 14,2 13,1 13 7 29 16 ZO 1008,2 3,9 0,0
15.08.2019 17:00:00 14,8 11,8 16 9 32 18 ZO 1008,6 17 0,0
15.08.2019 16:00:00 15,8 10,6 19 10 41 22 ZZO 1008,8 16 0,0
15.08.2019 15:00:00 17,5 7,8 14 8 32 17 ZZO 1008,8 50 0,0
15.08.2019 14:00:00 18,0 8,3 15 8 37 20 ZZO 1009,0 50 0,0
15.08.2019 13:00:00 18,7 10,5 18 10 42 23 Z 1009,6 50 0,0
15.08.2019 12:00:00 19,1 10,1 24 13 38 20 Z 1009,6 38 0,0
15.08.2019 11:00:00 19,2 11,7 16 8 33 18 Z 1009,8 42 0,0
15.08.2019 10:00:00 18,4 11,7 14 8 29 16 ZZO 1010,0 47 0,0
15.08.2019 09:00:00 16,4 11,5 10 5 18 10 ZO 1010,4 41 0,0
15.08.2019 08:00:00 14,6 11,4 6 3 15 8 OZO 1010,9 40 0,0
15.08.2019 07:00:00 13,8 11,0 0 0 0 0 N 1011,4 46 0,0
15.08.2019 06:00:00 14,4 11,0 0 0 8 5 N 1011,5 46 0,0
15.08.2019 05:00:00 15,2 10,8 6 4 14 7 ZZW 1011,8 50 0,0
15.08.2019 04:00:00 14,8 10,4 7 4 16 9 ZW 1012,3 50 0,0
15.08.2019 03:00:00 14,9 10,3 7 4 17 9 ZW 1012,6 49 0,0
15.08.2019 02:00:00 14,8 10,4 6 4 14 8 ZW 1013,0 50 0,0
15.08.2019 01:00:00 12,2 9,2 0 0 16 9 N 1013,2 50 0,0
15.08.2019 00:00:00 15,2 9,5 9 5 19 10 ZW 1013,1 50 0,0
14.08.2019 23:00:00 14,6 9,6 8 5 18 10 ZZW 1013,1 50 0,0
14.08.2019 22:00:00 15,3 9,0 10 6 19 10 ZW 1013,2 50 0,0
14.08.2019 21:00:00 15,7 8,4 9 5 19 11 ZW 1013,1 50 0,0
14.08.2019 20:00:00 16,9 7,8 13 7 25 13 WZW 1013,1 50 0,0
14.08.2019 19:00:00 18,0 6,8 16 8 25 13 WZW 1012,8 44 0,0
14.08.2019 18:00:00 18,8 7,6 15 8 30 16 W 1012,8 47 0,0
14.08.2019 17:00:00 19,6 8,6 14 7 33 18 W 1012,8 37 0,0
14.08.2019 16:00:00 19,6 5,6 21 11 33 18 WZW 1012,7 41 0,0
14.08.2019 15:00:00 19,5 7,6 18 10 29 15 WZW 1012,7 42 0,0
14.08.2019 14:00:00 19,2 9,7 11 6 29 15 W 1012,8 40 0,0
14.08.2019 13:00:00 18,0 9,1 14 8 29 15 W 1012,8 35 0,0
14.08.2019 12:00:00 16,4 13,1 10 5 20 11 WZW 1012,8 49 0,1
14.08.2019 11:00:00 12,5 10,0 10 5 19 10 ZW 1013,3 15 2,2
14.08.2019 10:00:00 15,0 7,5 16 9 27 14 WNW 1013,0 50 0,0
14.08.2019 09:00:00 16,2 10,5 13 7 27 15 WZW 1012,7 40 0,0
14.08.2019 08:00:00 15,0 10,6 13 7 23 12 WZW 1012,8 45 0,0
14.08.2019 07:00:00 13,3 9,9 10 5 17 9 ZW 1012,6 50 0,0
14.08.2019 06:00:00 12,2 10,1 8 5 19 11 ZW 1012,3 50 0,0
14.08.2019 05:00:00 12,4 9,8 11 6 19 11 ZW 1012,5 49 0,0
14.08.2019 04:00:00 12,5 10,0 9 5 17 9 ZW 1012,6 50 0,0
14.08.2019 03:00:00 12,7 9,9 10 5 19 11 ZW 1012,3 49 0,0
14.08.2019 02:00:00 13,0 10,0 10 5 21 11 ZW 1012,3 50 0,0
14.08.2019 01:00:00 13,1 9,9 10 6 23 13 ZW 1012,1 48 0,0
14.08.2019 00:00:00 13,8 8,8 15 8 27 14 ZW 1012,0 50 0,0
13.08.2019 23:00:00 14,3 9,9 10 5 16 9 ZW 1012,1 50 0,0

tt = temperatuur
td = dauwpunt
ff = windsnelheid
fx = windstoten
dd = windrichting
ppp = luchtdruk
vv = zicht
rr = neerslag

Weerstations in de omgeving